[[{"header":{"parameterUnit":"m.s-1","parameterCategory":1,"la1":30.2991,"la2":30.254,"lo1":-89.0895,"lo2":-89.0444,"dy":0.0017,"dx":0.0017,"nx":28,"ny":28,"refTime":"2025-06-20T09:00:00:Z","depth":0,"parameterNumber":2,"parameterNumberName":"U-component_of_WINDS"},"data":[0,0,0,0,0,0,0,0,0,0,0,0,0,0,0,0,0,0,0,0,0,0,0,0,0,0,0,0,0,0,0,0,0,0,0,0,0,0,0,0,0,0,0,0,0,0,0,0,0,0,0,0,0,0,0,0,0,0,-0.1011,-0.1011,0,-0.1018,-0.1018,-0.1018,-0.1032,-0.1032,-0.1032,-0.1032,-0.1038,-0.1038,-0.1038,0,0,0,0,0,0,0,0,0,0,0,0,0,-0.1007,-0.1007,-0.1011,-0.1011,-0.1012,-0.1018,-0.1018,-0.1018,-0.1032,-0.1032,-0.1032,-0.1033,-0.1038,-0.1038,-0.1038,0,0,0,0,0,0,0,0,0,0,0,0,0,-0.1011,-0.1007,-0.1011,-0.1019,-0.102,-0.1018,-0.1018,-0.1018,-0.1032,-0.1032,-0.1032,-0.1033,-0.1038,-0.1038,-0.1038,-0.1029,0,0,-0.1037,-0.1037,0,0,0,0,0,0,0,0,-0.1011,-0.1011,-0.1018,-0.1018,-0.1019,-0.1025,-0.1019,-0.1022,-0.1031,-0.1027,-0.1032,-0.1033,-0.1033,-0.1033,-0.1034,-0.1029,-0.1029,-0.1037,-0.1037,-0.1037,-0.1037,0,0,0,0,0,0,0,-0.101,-0.1011,-0.1014,-0.1018,-0.1019,-0.1021,-0.1022,-0.1019,-0.1028,-0.1027,-0.1028,-0.1029,-0.1033,-0.1034,-0.1034,-0.1029,-0.1037,-0.1037,-0.1037,-0.1037,-0.1015,-0.1015,0,0,0,0,0,0,-0.1009,-0.101,-0.1014,-0.1014,-0.1016,-0.1021,-0.1022,-0.1022,-0.1028,-0.1029,-0.1029,-0.103,-0.1034,-0.1034,-0.1034,-0.1022,-0.1037,-0.1037,-0.1037,-0.1016,-0.1015,-0.1015,0,0,0,0,0,0,-0.1009,-0.1009,-0.1014,-0.1013,-0.1013,-0.1021,-0.1021,-0.1022,-0.1023,-0.1029,-0.103,-0.1028,-0.1034,-0.1034,-0.103,-0.1023,-0.1037,-0.1037,-0.1016,-0.1016,-0.1015,-0.1,0,0,0,0,0,0,-0.1009,-0.1009,-0.1007,-0.1012,-0.1013,-0.101,-0.1021,-0.1022,-0.1023,-0.1024,-0.1028,-0.1029,-0.1034,-0.103,-0.1029,-0.1023,-0.1037,-0.1017,-0.1016,-0.1015,-0.1001,-0.0999,-0.0997,0,0,0,0,0,-0.1009,-0.1002,-0.1007,-0.1007,-0.101,-0.1009,-0.101,-0.1016,-0.1022,-0.1019,-0.1022,-0.1029,-0.1024,-0.1029,-0.1029,-0.1022,-0.1017,-0.1016,-0.1015,-0.1002,-0.0999,-0.0997,0,0,0,0,0,0,-0.0996,-0.1003,-0.1008,-0.1004,-0.1006,-0.1012,-0.1008,-0.1014,-0.1014,-0.1015,-0.1023,-0.1024,-0.1017,-0.1019,-0.1025,-0.1013,-0.1021,-0.102,-0.1011,-0.1009,-0.1007,-0.1006,-0.1036,0,0,0,0,0,-0.0992,-0.0991,-0.0998,-0.0993,-0.0994,-0.1001,-0.1001,-0.1005,-0.1008,-0.1009,-0.1012,-0.1013,-0.1012,-0.1011,-0.101,-0.1001,-0.1001,-0.0997,-0.0994,-0.0993,-0.0991,-0.0985,-0.0982,-0.1011,-0.1011,-0.1011,0,0,-0.0985,-0.0989,-0.0988,-0.0991,-0.0993,-0.0991,-0.1001,-0.0999,-0.0997,-0.1008,-0.1003,-0.1006,-0.1008,-0.1001,-0.0998,-0.1002,-0.0983,-0.0991,-0.099,-0.0989,-0.0983,-0.098,-0.0978,-0.101,-0.101,-0.1011,0,0,-0.0971,-0.0975,-0.097,-0.0972,-0.0975,-0.0979,-0.0978,-0.0983,-0.0985,-0.098,-0.0988,-0.0985,-0.0983,-0.0983,-0.0983,-0.0967,-0.0972,-0.0967,-0.0955,-0.0949,-0.0947,-0.0945,-0.0937,-0.0934,-0.0966,-0.0966,-0.0965,0,-0.0962,-0.0959,-0.0967,-0.0964,-0.0964,-0.0974,-0.0968,-0.0969,-0.0972,-0.0971,-0.0976,-0.0972,-0.0975,-0.0967,-0.0962,-0.0963,-0.096,-0.0966,-0.0947,-0.0945,-0.0943,-0.0935,-0.0933,-0.0965,-0.0965,-0.0965,-0.0965,0,-0.0947,-0.0945,-0.0941,-0.0943,-0.0942,-0.0938,-0.0944,-0.0942,-0.0947,-0.095,-0.0944,-0.0947,-0.0946,-0.0945,-0.0949,-0.0936,-0.0939,-0.0945,-0.0954,-0.0939,-0.0932,-0.0929,-0.0963,-0.0964,-0.0964,-0.0964,0,0,-0.0925,-0.093,-0.0928,-0.0928,-0.0932,-0.093,-0.0925,-0.0924,-0.0922,-0.0923,-0.0918,-0.0915,-0.092,-0.092,-0.0925,-0.0919,-0.0904,-0.0926,-0.0926,-0.092,-0.0887,-0.0881,-0.0878,-0.0908,-0.0907,-0.0907,-0.0887,0,-0.091,-0.0903,-0.0909,-0.0901,-0.0898,-0.0906,-0.0902,-0.0903,-0.0905,-0.0902,-0.0905,-0.0902,-0.091,-0.091,-0.0905,-0.0907,-0.0897,-0.0909,-0.0901,-0.0901,-0.0899,-0.0875,-0.0869,-0.085,-0.0884,-0.0884,-0.0883,0,-0.0893,-0.0892,-0.0883,-0.0885,-0.0884,-0.088,-0.0879,-0.0877,-0.0877,-0.0879,-0.0878,-0.0883,-0.0877,-0.0886,-0.0877,-0.0885,-0.0882,-0.0882,-0.0882,-0.088,-0.089,-0.0871,-0.0844,-0.0841,-0.088,-0.088,-0.088,0,-0.0875,-0.0873,-0.0866,-0.0867,-0.0869,-0.0866,-0.0867,-0.0868,-0.0866,-0.0864,-0.0863,-0.086,-0.0859,-0.0856,-0.086,-0.0867,-0.0849,-0.086,-0.0849,-0.0849,-0.0844,-0.0844,-0.0815,-0.0845,-0.0845,-0.0845,-0.0845,0,-0.0858,-0.0852,-0.0859,-0.0854,-0.0847,-0.0853,-0.0845,-0.0847,-0.0847,-0.0842,-0.085,-0.0845,-0.0851,-0.0846,-0.0849,-0.084,-0.084,-0.084,-0.084,-0.0838,-0.0838,-0.0836,-0.0836,-0.0845,-0.0845,-0.0845,-0.0845,0,-0.0837,-0.0842,-0.0835,-0.0838,-0.0838,-0.0832,-0.0834,-0.083,-0.0832,-0.0826,-0.0825,-0.0828,-0.0823,-0.0827,-0.0822,-0.0824,-0.081,-0.0814,-0.081,-0.081,-0.0799,-0.0799,-0.0766,-0.0761,-0.0796,-0.0796,-0.0796,0,-0.0825,-0.082,-0.0822,-0.082,-0.082,-0.0816,-0.0814,-0.0819,-0.0817,-0.0816,-0.0811,-0.0806,-0.0802,-0.0793,-0.0794,-0.079,-0.0792,-0.0781,-0.0791,-0.0788,-0.0789,-0.0789,-0.0787,-0.0778,-0.0778,-0.0777,-0.0777,0,-0.0803,-0.0805,-0.0802,-0.0799,-0.0796,-0.0794,-0.0793,-0.079,-0.0796,-0.0792,-0.0786,-0.0783,-0.0777,-0.0772,-0.0768,-0.0767,-0.0772,-0.0774,-0.0771,-0.0768,-0.0765,-0.0764,-0.0802,-0.0774,-0.0774,-0.0775,-0.0775,-0.0775,-0.0785,-0.078,-0.078,-0.0776,-0.0775,-0.0773,-0.0768,-0.077,-0.0765,-0.0761,-0.0764,-0.0757,-0.0755,-0.075,-0.0749,-0.0742,-0.0747,-0.0743,-0.0741,-0.074,-0.0737,-0.0767,-0.0742,-0.0742,-0.0742,-0.0742,-0.0742,0,-0.0761,-0.0761,-0.0757,-0.0754,-0.075,-0.0756,-0.0754,-0.075,-0.0744,-0.0742,-0.0738,-0.073,-0.0724,-0.0725,-0.0719,-0.0713,-0.0715,-0.0711,-0.0711,-0.071,-0.0735,-0.0737,-0.0709,-0.0709,-0.0709,-0.0709,-0.071,-0.071,-0.0748,-0.0739,-0.0741,-0.0731,-0.0731,-0.0724,-0.0722,-0.0719,-0.0718,-0.0709,-0.0704,-0.0704,-0.0703,-0.0696,-0.069,-0.069,-0.0687,-0.0682,-0.0683,-0.0705,-0.0709,-0.0712,-0.0714,-0.0682,-0.0682,-0.0658,-0.0658,-0.0658]},{"header":{"parameterUnit":"m.s-1","parameterCategory":1,"la1":30.2991,"la2":30.254,"lo1":-89.0895,"lo2":-89.0444,"dy":0.0017,"dx":0.0017,"nx":28,"ny":28,"refTime":"2025-06-20T09:00:00:Z","depth":0,"parameterNumber":3,"parameterNumberName":"V-component_of_WINDS"},"data":[0,0,0,0,0,0,0,0,0,0,0,0,0,0,0,0,0,0,0,0,0,0,0,0,0,0,0,0,0,0,0,0,0,0,0,0,0,0,0,0,0,0,0,0,0,0,0,0,0,0,0,0,0,0,0,0,0,0,-0.7462,-0.7462,0,-0.7523,-0.7524,-0.7524,-0.7551,-0.7551,-0.7551,-0.7551,-0.7615,-0.7617,-0.7618,0,0,0,0,0,0,0,0,0,0,0,0,0,-0.7368,-0.7369,-0.7461,-0.7462,-0.7463,-0.7523,-0.7524,-0.7525,-0.7551,-0.7551,-0.7551,-0.7551,-0.7614,-0.7616,-0.7618,0,0,0,0,0,0,0,0,0,0,0,0,0,-0.7417,-0.737,-0.7461,-0.7484,-0.7486,-0.7523,-0.7524,-0.7525,-0.7551,-0.7551,-0.7551,-0.7551,-0.7614,-0.7616,-0.7619,-0.7638,0,0,-0.7627,-0.7628,0,0,0,0,0,0,0,0,-0.7414,-0.742,-0.748,-0.7482,-0.7485,-0.7529,-0.7514,-0.7563,-0.7551,-0.7527,-0.7551,-0.7551,-0.7587,-0.7591,-0.7603,-0.7641,-0.7644,-0.7627,-0.7629,-0.763,-0.7631,0,0,0,0,0,0,0,-0.7411,-0.7418,-0.7486,-0.748,-0.7484,-0.7491,-0.7497,-0.7524,-0.7557,-0.7529,-0.7531,-0.7538,-0.7588,-0.7601,-0.7605,-0.7645,-0.7627,-0.763,-0.7631,-0.7632,-0.7702,-0.7702,0,0,0,0,0,0,-0.7403,-0.7415,-0.7484,-0.7488,-0.7448,-0.7492,-0.75,-0.7515,-0.7556,-0.7563,-0.7538,-0.7539,-0.7596,-0.7602,-0.7607,-0.7633,-0.763,-0.7632,-0.7634,-0.7701,-0.7702,-0.7702,0,0,0,0,0,0,-0.7401,-0.7409,-0.7481,-0.7452,-0.7462,-0.7494,-0.7511,-0.7517,-0.7529,-0.7563,-0.7569,-0.7545,-0.7596,-0.7604,-0.763,-0.7635,-0.7634,-0.7636,-0.7701,-0.7701,-0.7702,-0.7683,0,0,0,0,0,0,-0.7398,-0.7408,-0.7416,-0.7452,-0.7463,-0.7503,-0.7511,-0.7518,-0.7534,-0.7536,-0.7571,-0.7577,-0.7597,-0.7626,-0.7633,-0.7639,-0.7638,-0.7701,-0.7701,-0.7702,-0.7684,-0.7683,-0.7683,0,0,0,0,0,-0.7395,-0.7409,-0.7416,-0.7424,-0.7473,-0.7503,-0.751,-0.7532,-0.7534,-0.7542,-0.7564,-0.7576,-0.7634,-0.7629,-0.7637,-0.7643,-0.7701,-0.7701,-0.7702,-0.7684,-0.7683,-0.7683,0,0,0,0,0,0,-0.7373,-0.7414,-0.7423,-0.7448,-0.7472,-0.7508,-0.7518,-0.753,-0.7554,-0.7555,-0.7582,-0.759,-0.7614,-0.7632,-0.7625,-0.7664,-0.7668,-0.767,-0.7652,-0.7652,-0.7651,-0.7646,-0.764,0,0,0,0,0,-0.7371,-0.7392,-0.7426,-0.7446,-0.7457,-0.7486,-0.75,-0.7515,-0.754,-0.7551,-0.7575,-0.76,-0.7623,-0.7638,-0.7662,-0.7686,-0.7695,-0.7695,-0.7694,-0.7694,-0.7695,-0.7709,-0.771,-0.7704,-0.7704,-0.7704,0,0,-0.7367,-0.7392,-0.7404,-0.7442,-0.7462,-0.7483,-0.7494,-0.7516,-0.7532,-0.7554,-0.7581,-0.7599,-0.7629,-0.7654,-0.7667,-0.7669,-0.7699,-0.7695,-0.7694,-0.7696,-0.771,-0.7711,-0.7711,-0.7704,-0.7704,-0.7704,0,0,-0.7371,-0.7392,-0.741,-0.743,-0.746,-0.7479,-0.7484,-0.7518,-0.7531,-0.7557,-0.7575,-0.7594,-0.7635,-0.7655,-0.7671,-0.7682,-0.7694,-0.7689,-0.7686,-0.7699,-0.77,-0.77,-0.7704,-0.7705,-0.769,-0.769,-0.769,0,-0.7363,-0.7395,-0.7418,-0.7439,-0.7455,-0.7476,-0.7495,-0.7513,-0.755,-0.7561,-0.7563,-0.7614,-0.7636,-0.7666,-0.7669,-0.7681,-0.7686,-0.7685,-0.7698,-0.7699,-0.7699,-0.7704,-0.7705,-0.7689,-0.7689,-0.769,-0.769,0,-0.7383,-0.7405,-0.7416,-0.7451,-0.7468,-0.7488,-0.7514,-0.7529,-0.7542,-0.7561,-0.7588,-0.7615,-0.7644,-0.7652,-0.7666,-0.7685,-0.7685,-0.7692,-0.7697,-0.7699,-0.7703,-0.7705,-0.7688,-0.7689,-0.7689,-0.7689,0,0,-0.7375,-0.7422,-0.7425,-0.7441,-0.7476,-0.7494,-0.7514,-0.7543,-0.7555,-0.758,-0.7598,-0.7631,-0.7638,-0.7656,-0.7672,-0.7683,-0.769,-0.7689,-0.769,-0.7688,-0.7713,-0.7707,-0.7709,-0.7699,-0.7699,-0.7699,-0.771,0,-0.7384,-0.7421,-0.7442,-0.7471,-0.7492,-0.7512,-0.753,-0.7553,-0.7571,-0.7592,-0.7612,-0.7635,-0.7642,-0.7653,-0.7665,-0.7687,-0.7696,-0.7686,-0.7716,-0.7717,-0.7708,-0.7711,-0.7705,-0.7715,-0.7712,-0.7713,-0.7713,0,-0.7399,-0.7423,-0.7453,-0.7486,-0.7495,-0.7511,-0.7539,-0.7558,-0.7585,-0.7597,-0.7616,-0.7632,-0.7655,-0.7657,-0.7689,-0.7682,-0.7696,-0.7708,-0.7709,-0.7713,-0.7715,-0.7715,-0.7718,-0.7719,-0.7716,-0.7716,-0.7715,0,-0.739,-0.743,-0.7453,-0.7466,-0.7504,-0.7515,-0.7531,-0.7558,-0.7574,-0.7598,-0.7609,-0.7635,-0.765,-0.767,-0.7693,-0.7693,-0.7722,-0.7727,-0.7733,-0.7733,-0.7739,-0.7738,-0.7744,-0.7747,-0.7747,-0.7747,-0.7747,0,-0.7397,-0.7415,-0.7449,-0.7464,-0.7485,-0.7509,-0.7529,-0.7547,-0.7571,-0.7589,-0.7608,-0.7625,-0.7654,-0.7675,-0.7692,-0.7716,-0.7723,-0.7733,-0.7738,-0.7732,-0.773,-0.7741,-0.7741,-0.7748,-0.7748,-0.7747,-0.7747,0,-0.7391,-0.7414,-0.7441,-0.7475,-0.7484,-0.7498,-0.7527,-0.7542,-0.756,-0.7584,-0.759,-0.762,-0.7645,-0.767,-0.7704,-0.7716,-0.7739,-0.7745,-0.773,-0.7733,-0.7738,-0.7737,-0.7751,-0.7754,-0.7755,-0.7755,-0.7755,0,-0.7394,-0.7408,-0.7443,-0.7457,-0.7473,-0.7494,-0.751,-0.7535,-0.7551,-0.7582,-0.7593,-0.762,-0.7643,-0.7682,-0.7707,-0.7733,-0.774,-0.7743,-0.7744,-0.7737,-0.774,-0.7739,-0.774,-0.7742,-0.7742,-0.7742,-0.7742,0,-0.7397,-0.7408,-0.743,-0.7456,-0.7474,-0.7496,-0.7519,-0.7529,-0.7557,-0.7574,-0.76,-0.7618,-0.7652,-0.7678,-0.7707,-0.7725,-0.7738,-0.7741,-0.7744,-0.7738,-0.7729,-0.7734,-0.7728,-0.7741,-0.7741,-0.7741,-0.7741,-0.7741,-0.7396,-0.7409,-0.7436,-0.746,-0.7479,-0.75,-0.7515,-0.7536,-0.7557,-0.7587,-0.76,-0.7626,-0.7653,-0.7693,-0.7711,-0.7731,-0.7735,-0.7739,-0.774,-0.7741,-0.7739,-0.7725,-0.7737,-0.7737,-0.7737,-0.7737,-0.7737,0,-0.74,-0.7418,-0.744,-0.747,-0.7489,-0.7499,-0.7525,-0.754,-0.7562,-0.7586,-0.7608,-0.7637,-0.7663,-0.7689,-0.7716,-0.7728,-0.7735,-0.7734,-0.7734,-0.7738,-0.7735,-0.773,-0.7728,-0.7728,-0.7728,-0.7728,-0.7728,-0.7728,-0.7404,-0.7427,-0.7441,-0.7474,-0.7493,-0.7518,-0.7531,-0.7551,-0.7569,-0.7602,-0.7623,-0.764,-0.7665,-0.7694,-0.7718,-0.7725,-0.7734,-0.7732,-0.774,-0.7737,-0.7738,-0.7738,-0.7734,-0.7733,-0.7733,-0.7742,-0.7742,-0.7742]}]]